• In Kazakhstan
  • List of Countries
  • For 7 days
  • Water Temperature
  • Satellite Maps
  • Weather Map
  • News
  • Weather Widgets
  • user-avatar
    Login

    Hourly Weather Poluevo

    Today, 24 January, Thursday

    Time Temperature Precipitation Wind Pressure Humidity
    00:00 -18°C° 0 mm 4 mps 748 mmHg 95%
    01:00 -18°C° 0 mm 4 mps 748 mmHg 95%
    02:00 -17°C° 0 mm 4 mps 748 mmHg 94%
    03:00 -17°C° 0 mm 4 mps 747 mmHg 94%
    04:00 -17°C° 0 mm 4 mps 747 mmHg 94%
    05:00 -17°C° 0 mm 4 mps 746 mmHg 94%
    06:00 -17°C° 0 mm 4 mps 746 mmHg 94%
    07:00 -18°C° 0 mm 5 mps 746 mmHg 94%
    08:00 -18°C° 0 mm 5 mps 746 mmHg 94%
    09:00 -17°C° 0.2 mm 5 mps 745 mmHg 94%
    10:00 -16°C° 0.2 mm 4 mps 745 mmHg 94%
    11:00 -15°C° 0.2 mm 4 mps 745 mmHg 94%
    12:00 -14°C° 0.2 mm 4 mps 745 mmHg 94%
    13:00 -14°C° 0.2 mm 4 mps 745 mmHg 93%
    14:00 -12°C° 0.2 mm 4 mps 745 mmHg 93%
    15:00 -14°C° 0 mm 4 mps 746 mmHg 92%
    16:00 -14°C° 0 mm 4 mps 746 mmHg 92%
    17:00 -15°C° 0 mm 4 mps 747 mmHg 91%
    18:00 -16°C° 0 mm 4 mps 747 mmHg 92%
    19:00 -17°C° 0 mm 4 mps 748 mmHg 94%
    20:00 -18°C° 0 mm 3 mps 748 mmHg 95%
    21:00 -18°C° 0 mm 3 mps 749 mmHg 96%
    22:00 -19°C° 0 mm 3 mps 750 mmHg 96%
    23:00 -21°C° 0 mm 3 mps 750 mmHg 97%

    Tomorrow, 25 January, Friday

    Time Temperature Precipitation Wind Pressure Humidity
    00:00 -21°C° 0 mm 3 mps 751 mmHg 97%
    01:00 -22°C° 0 mm 3 mps 751 mmHg 98%
    02:00 -23°C° 0 mm 3 mps 752 mmHg 98%
    03:00 -21°C° 0 mm 2 mps 752 mmHg 99%
    04:00 -21°C° 0 mm 2 mps 753 mmHg 99%
    05:00 -23°C° 0 mm 2 mps 753 mmHg 99%
    06:00 -23°C° 0 mm 2 mps 753 mmHg 99%
    07:00 -23°C° 0 mm 2 mps 754 mmHg 98%
    08:00 -23°C° 0 mm 2 mps 754 mmHg 97%
    09:00 -21°C° 0 mm 2 mps 754 mmHg 96%
    10:00 -20°C° 0 mm 2 mps 755 mmHg 94%
    11:00 -18°C° 0 mm 2 mps 755 mmHg 92%
    12:00 -18°C° 0 mm 2 mps 755 mmHg 92%
    13:00 -18°C° 0 mm 2 mps 755 mmHg 92%
    14:00 -18°C° 0 mm 2 mps 755 mmHg 92%
    15:00 -19°C° 0 mm 2 mps 756 mmHg 92%
    16:00 -20°C° 0 mm 2 mps 756 mmHg 92%
    17:00 -20°C° 0 mm 2 mps 756 mmHg 92%
    18:00 -18°C° 0 mm 1 mps 756 mmHg 92%
    19:00 -18°C° 0 mm 1 mps 756 mmHg 92%
    20:00 -18°C° 0 mm 1 mps 755 mmHg 91%
    21:00 -20°C° 0 mm 2 mps 755 mmHg 91%
    22:00 -19°C° 0 mm 2 mps 755 mmHg 92%
    23:00 -19°C° 0 mm 2 mps 755 mmHg 92%

    Day after tomorrow, 26 January, Saturday

    Time Temperature Precipitation Wind Pressure Humidity
    00:00 -19°C° 0 mm 2 mps 755 mmHg 92%
    01:00 -18°C° 0 mm 2 mps 754 mmHg 92%
    02:00 -18°C° 0 mm 2 mps 754 mmHg 92%
    03:00 -18°C° 0 mm 2 mps 754 mmHg 92%
    04:00 -19°C° 0 mm 3 mps 753 mmHg 91%
    05:00 -18°C° 0 mm 3 mps 752 mmHg 91%
    06:00 -18°C° 0 mm 3 mps 752 mmHg 91%
    07:00 -19°C° 0 mm 4 mps 751 mmHg 90%
    08:00 -19°C° 0 mm 4 mps 751 mmHg 90%
    09:00 -19°C° 0 mm 5 mps 750 mmHg 87%
    10:00 -18°C° 0 mm 5 mps 749 mmHg 85%
    11:00 -18°C° 0 mm 6 mps 748 mmHg 83%
    12:00 -17°C° 0.2 mm 6 mps 747 mmHg 86%
    13:00 -17°C° 0.2 mm 6 mps 746 mmHg 89%
    14:00 -17°C° 0.2 mm 6 mps 745 mmHg 93%
    15:00 -17°C° 0.5 mm 6 mps 745 mmHg 93%
    16:00 -17°C° 0.5 mm 6 mps 744 mmHg 93%
    17:00 -17°C° 0.5 mm 6 mps 743 mmHg 93%
    18:00 -17°C° 0.5 mm 6 mps 742 mmHg 93%
    19:00 -15°C° 0.5 mm 5 mps 742 mmHg 93%
    20:00 -15°C° 0.5 mm 5 mps 741 mmHg 94%
    21:00 -15°C° 0.4 mm 5 mps 741 mmHg 94%
    22:00 -15°C° 0.4 mm 5 mps 741 mmHg 94%
    23:00 -14°C° 0.4 mm 5 mps 740 mmHg 94%

    27 January, Sunday

    Time Temperature Precipitation Wind Pressure Humidity
    00:00 -14°C° 0.3 mm 5 mps 740 mmHg 94%
    01:00 -14°C° 0.3 mm 5 mps 740 mmHg 94%
    02:00 -14°C° 0.3 mm 5 mps 739 mmHg 94%
    03:00 -14°C° 0.3 mm 4 mps 739 mmHg 94%
    04:00 -12°C° 0.3 mm 4 mps 738 mmHg 94%
    05:00 -12°C° 0.3 mm 4 mps 738 mmHg 94%
    06:00 -12°C° 0.2 mm 4 mps 738 mmHg 94%
    07:00 -12°C° 0.2 mm 4 mps 737 mmHg 94%
    08:00 -11°C° 0.2 mm 4 mps 737 mmHg 94%
    09:00 -11°C° 0.4 mm 4 mps 737 mmHg 94%
    10:00 -11°C° 0.4 mm 5 mps 737 mmHg 94%
    11:00 -11°C° 0.4 mm 5 mps 736 mmHg 94%
    12:00 -10°C° 0.6 mm 5 mps 736 mmHg 94%
    13:00 -10°C° 0.6 mm 5 mps 736 mmHg 94%
    14:00 -8°C° 0.6 mm 5 mps 735 mmHg 94%
    15:00 -8°C° 0.6 mm 5 mps 735 mmHg 94%
    16:00 -8°C° 0.6 mm 4 mps 735 mmHg 94%
    17:00 -8°C° 0.6 mm 4 mps 735 mmHg 94%
    18:00 -8°C° 0.4 mm 4 mps 735 mmHg 94%
    19:00 -7°C° 0.4 mm 4 mps 735 mmHg 94%
    20:00 -7°C° 0.4 mm 4 mps 735 mmHg 94%
    21:00 -7°C° 0.3 mm 4 mps 735 mmHg 95%
    22:00 -7°C° 0.3 mm 3 mps 735 mmHg 95%
    23:00 -7°C° 0.3 mm 3 mps 735 mmHg 96%

    28 January, Monday

    Time Temperature Precipitation Wind Pressure Humidity
    00:00 -8°C° 0.2 mm 3 mps 736 mmHg 96%
    01:00 -8°C° 0.2 mm 3 mps 736 mmHg 96%
    02:00 -9°C° 0.2 mm 3 mps 737 mmHg 96%
    03:00 -10°C° 0 mm 3 mps 737 mmHg 96%
    04:00 -12°C° 0 mm 3 mps 737 mmHg 95%
    05:00 -14°C° 0 mm 4 mps 737 mmHg 95%
    06:00 -15°C° 0 mm 4 mps 738 mmHg 95%
    07:00 -15°C° 0 mm 4 mps 739 mmHg 95%
    08:00 -15°C° 0 mm 3 mps 739 mmHg 95%
    09:00 -15°C° 0 mm 3 mps 740 mmHg 95%
    10:00 -16°C° 0 mm 4 mps 740 mmHg 95%
    11:00 -16°C° 0 mm 4 mps 741 mmHg 95%
    12:00 -15°C° 0 mm 3 mps 741 mmHg 95%
    13:00 -15°C° 0 mm 3 mps 741 mmHg 94%
    14:00 -14°C° 0 mm 3 mps 742 mmHg 94%
    15:00 -15°C° 0 mm 3 mps 742 mmHg 95%
    16:00 -16°C° 0 mm 3 mps 743 mmHg 95%
    17:00 -16°C° 0 mm 2 mps 743 mmHg 96%
    18:00 -16°C° 0 mm 2 mps 743 mmHg 96%
    19:00 -16°C° 0 mm 2 mps 743 mmHg 96%
    20:00 -17°C° 0 mm 2 mps 744 mmHg 97%
    21:00 -15°C° 0 mm 1 mps 744 mmHg 97%
    22:00 -15°C° 0 mm 1 mps 744 mmHg 97%
    23:00 -15°C° 0 mm 1 mps 744 mmHg 97%

    29 January, Tuesday

    Time Temperature Precipitation Wind Pressure Humidity
    00:00 -15°C° 0 mm 1 mps 744 mmHg 97%
    01:00 -15°C° 0 mm 1 mps 744 mmHg 97%
    02:00 -15°C° 0 mm 1 mps 745 mmHg 97%
    03:00 -15°C° 0 mm 1 mps 744 mmHg 97%
    04:00 -15°C° 0 mm 1 mps 744 mmHg 97%
    05:00 -17°C° 0 mm 2 mps 744 mmHg 97%
    06:00 -17°C° 0 mm 2 mps 744 mmHg 97%
    07:00 -18°C° 0 mm 2 mps 744 mmHg 97%
    08:00 -19°C° 0 mm 3 mps 743 mmHg 98%
    09:00 -18°C° 0 mm 3 mps 743 mmHg 97%
    10:00 -18°C° 0 mm 4 mps 743 mmHg 96%
    11:00 -17°C° 0 mm 4 mps 743 mmHg 95%
    12:00 -16°C° 0 mm 4 mps 742 mmHg 94%
    13:00 -15°C° 0 mm 5 mps 742 mmHg 93%
    14:00 -14°C° 0 mm 5 mps 741 mmHg 92%
    15:00 -13°C° 0.1 mm 5 mps 741 mmHg 93%
    16:00 -13°C° 0.1 mm 5 mps 740 mmHg 93%
    17:00 -13°C° 0.1 mm 5 mps 740 mmHg 93%
    18:00 -12°C° 0.2 mm 5 mps 739 mmHg 94%
    19:00 -12°C° 0.2 mm 5 mps 739 mmHg 94%
    20:00 -11°C° 0.2 mm 5 mps 739 mmHg 94%
    21:00 -10°C° 0.5 mm 5 mps 738 mmHg 94%
    22:00 -8°C° 0.5 mm 5 mps 738 mmHg 94%
    23:00 -7°C° 0.5 mm 5 mps 738 mmHg 94%
    Show more